Location: Eferding
(48.3167°N, 14.0167°E)
Time: 01:53:04
(UTC+00:00)

Meteor 2-11 Rocket - Pass Details

Date: 12 November 2019
Orbit: 940 x 956 km, 82.5° (Epoch: 09 December)

Event Time Altitude Azimuth Distance (km) Brightness Sun altitude
Rises 17:43:42 0° 350° (N) 3,623 7.6 -22.3°
Reaches altitude 10° 17:46:12 10° 351° (N) 2,676 6.9 -22.7°
Maximum altitude 17:52:20 84° 79° (E) 960 4.3 -23.8°
Drops below altitude 10° 17:58:28 10° 169° (S) 2,669 6.7 -24.8°
Sets 18:00:57 0° 170° (S) 3,612 7.4 -25.2°
